GW0068 Weather Reports


Display with metric or nautical units.
time (UTC)temp
F
wind
direction
speed
MPH
gust
MPH
rain 1hr
in
rain 24hr
in
rain mn
in
humidity
%
barometer
mb
20260504175520 89 63 2.0 4.0 0.00 0.03 0.00 74 1014.5
20260504175021 89 202 1.0 8.0 0.00 0.03 0.00 74 1014.6
20260504174539 89 0 1.0 8.0 0.00 0.03 0.00 73 1014.7
20260504174022 89 55 1.0 5.0 0.00 0.03 0.00 72 1014.7
20260504173521 89 217 1.0 7.0 0.00 0.03 0.00 73 1014.9
20260504173041 89 0 2.0 7.0 0.00 0.03 0.00 74 1014.9
20260504172522 88 132 1.0 10.0 0.00 0.03 0.00 76 1014.8
20260504172022 88 194 2.0 10.0 0.00 0.03 0.00 74 1014.8
20260504171539 88 120 2.0 7.0 0.00 0.03 0.00 75 1014.9
20260504171024 89 263 2.0 7.0 0.00 0.03 0.00 73 1014.7
20260504170521 89 167 1.0 5.0 0.00 0.03 0.00 75 1014.7
20260504151022 87 231 1.0 6.0 0.00 0.03 0.00 78 1015.1
20260504150520 86 181 2.0 6.0 0.00 0.03 0.00 78 1015.2
20260504141020 87 61 0.0 3.0 0.00 0.03 0.00 75 1014.9
20260504140521 86 184 1.0 4.0 0.00 0.03 0.00 76 1014.8
20260504130523 82 0 0.0 2.0 0.00 0.03 0.00 84 1014.5
20260504110521 75 0 0.0 0.0 0.00 0.03 0.00 93 1013.6
20260504100520 76 0 0.0 0.0 0.00 0.03 0.00 92 1013.7
20260504081535 77 0 0.0 0.0 0.00 0.03 0.00 90 1013.4
20260504081023 77 0 0.0 0.0 0.00 0.03 0.00 89 1013.3
20260504080523 78 0 0.0 0.0 0.00 0.03 0.00 89 1013.4
20260504050522 81 230 0.0 2.0 0.00 0.03 0.00 83 1015.2
20260504045522 82 0 0.0 2.0 0.00 0.03 0.03 82 1015.3
20260504045022 81 0 0.0 4.0 0.00 0.03 0.03 82 1015.3
20260504044540 81 0 1.0 4.0 0.00 0.03 0.03 82 1015.3
20260504044023 81 0 0.0 2.0 0.00 0.03 0.03 83 1015.3
20260504043522 81 169 0.0 5.0 0.00 0.03 0.03 83 1015.3
20260504043048 81 79 0.0 5.0 0.00 0.03 0.03 83 1015.4
20260504042521 81 0 0.0 5.0 0.00 0.03 0.03 83 1015.3
20260504042021 81 201 0.0 2.0 0.00 0.03 0.03 83 1015.4
20260504041546 81 0 0.0 2.0 0.00 0.03 0.03 83 1015.5
20260504041023 81 311 0.0 2.0 0.00 0.03 0.03 84 1015.5
20260504040522 81 0 0.0 2.0 0.00 0.03 0.03 84 1015.6
20260504040048 81 0 0.0 2.0 0.00 0.03 0.03 84 1015.7
20260504035523 81 265 0.0 1.0 0.00 0.03 0.03 84 1015.7
20260504035023 81 0 0.0 1.0 0.00 0.03 0.03 83 1015.9
20260504034547 81 0 0.0 1.0 0.00 0.03 0.03 83 1015.8
20260504034022 81 0 0.0 1.0 0.00 0.03 0.03 83 1016.0
20260504033525 81 259 0.0 1.0 0.00 0.03 0.03 83 1015.9
20260504033040 81 0 0.0 2.0 0.00 0.03 0.03 83 1015.9
20260504032522 81 0 0.0 2.0 0.00 0.03 0.03 83 1015.9
20260504032024 81 0 0.0 1.0 0.00 0.03 0.03 83 1015.9
20260504031536 81 0 0.0 1.0 0.00 0.03 0.03 83 1015.9
20260504031021 81 0 0.0 1.0 0.00 0.03 0.03 83 1016.1
20260504030522 81 0 0.0 1.0 0.00 0.03 0.03 83 1016.0
20260504030043 81 0 0.0 1.0 0.00 0.03 0.03 83 1015.8
20260504025523 82 0 0.0 1.0 0.00 0.03 0.03 83 1015.9
20260504025023 82 0 0.0 2.0 0.00 0.03 0.03 83 1015.9
20260504024547 82 0 0.0 2.0 0.00 0.03 0.03 82 1016.0
20260504024022 82 0 0.0 4.0 0.00 0.03 0.03 82 1015.9
20260504023522 82 0 0.0 4.0 0.00 0.03 0.03 82 1015.9
20260504023040 82 229 0.0 2.0 0.00 0.03 0.03 82 1015.7
20260504022522 82 0 0.0 1.0 0.00 0.03 0.03 82 1015.7
20260504022021 82 0 0.0 1.0 0.00 0.03 0.03 82 1015.7
20260504021539 82 0 0.0 1.0 0.00 0.03 0.03 82 1015.7
20260504021021 82 0 0.0 1.0 0.00 0.03 0.03 83 1015.5
20260504020520 82 0 0.0 1.0 0.00 0.03 0.03 83 1015.4
20260504020124 82 0 0.0 2.0 0.00 0.03 0.03 82 1015.3
20260504015521 82 0 0.0 2.0 0.00 0.03 0.03 82 1015.3
20260504015022 82 0 0.0 2.0 0.00 0.03 0.03 82 1015.3
20260504014545 82 0 0.0 2.0 0.00 0.03 0.03 82 1015.2
20260504014021 82 206 0.0 2.0 0.00 0.03 0.03 82 1015.1
20260504013521 82 0 0.0 5.0 0.00 0.03 0.03 82 1015.0
20260504013055 82 206 0.0 5.0 0.00 0.03 0.03 82 1014.7
20260504012521 82 207 0.0 5.0 0.00 0.03 0.03 82 1014.5
20260504012021 82 236 0.0 2.0 0.00 0.03 0.03 82 1014.4
20260504011539 82 114 0.0 2.0 0.00 0.03 0.03 82 1014.5
20260504011022 82 182 0.0 3.0 0.00 0.03 0.03 82 1014.5
20260504010522 82 0 0.0 3.0 0.00 0.03 0.03 81 1014.4
20260504010048 82 190 0.0 2.0 0.00 0.03 0.03 81 1014.4
20260504005522 82 0 0.0 3.0 0.00 0.03 0.03 82 1014.3
20260504005022 82 257 0.0 3.0 0.00 0.03 0.03 82 1014.4
20260504004541 82 103 0.0 2.0 0.00 0.03 0.03 83 1014.4
20260504004020 82 0 0.0 3.0 0.00 0.03 0.03 83 1014.2
20260504003520 82 0 0.0 3.0 0.00 0.03 0.03 83 1014.2
20260504003041 82 0 0.0 2.0 0.00 0.03 0.03 83 1014.1
20260504002521 82 0 0.0 2.0 0.00 0.03 0.03 83 1014.1
20260504002020 82 193 0.0 3.0 0.00 0.03 0.03 83 1014.1
20260504001546 82 0 0.0 4.0 0.00 0.03 0.03 83 1014.0
20260504001020 82 0 0.0 4.0 0.00 0.03 0.03 83 1013.8
20260504000526 82 224 0.0 4.0 0.00 0.03 0.03 83 1013.7
20260504000037 82 0 0.0 4.0 0.00 0.03 0.03 82 1013.7
20260503235522 83 204 0.0 5.0 0.00 0.03 0.03 82 1013.7
20260503235022 83 188 1.0 5.0 0.00 0.03 0.03 82 1013.7
20260503234543 83 0 0.0 7.0 0.00 0.03 0.03 82 1013.5
20260503234022 83 0 0.0 7.0 0.00 0.03 0.03 82 1013.4
20260503233522 83 181 0.0 4.0 0.00 0.03 0.03 82 1013.3
20260503233044 83 221 1.0 2.0 0.00 0.03 0.03 82 1013.2
20260503232520 83 0 0.0 2.0 0.00 0.03 0.03 82 1013.3
20260503232020 84 61 1.0 2.0 0.00 0.03 0.03 81 1013.4
20260503231541 84 0 0.0 3.0 0.00 0.03 0.03 81 1013.3
20260503231022 84 156 1.0 5.0 0.00 0.03 0.03 81 1013.4
20260503230522 84 5 0.0 5.0 0.00 0.03 0.03 81 1013.4
20260503230043 84 240 1.0 3.0 0.00 0.03 0.03 81 1013.4
20260503225522 84 0 0.0 3.0 0.00 0.03 0.03 82 1013.3
20260503225021 84 0 0.0 3.0 0.00 0.03 0.03 82 1013.4
20260503224537 84 245 1.0 3.0 0.00 0.03 0.03 82 1013.3
20260503224021 85 196 1.0 3.0 0.00 0.03 0.03 82 1013.4
20260503223521 84 0 0.0 4.0 0.00 0.03 0.03 82 1013.4
20260503223042 85 0 1.0 4.0 0.00 0.03 0.03 82 1013.3
20260503222521 85 0 0.0 3.0 0.00 0.03 0.03 82 1013.3
20260503222020 85 67 1.0 7.0 0.00 0.03 0.03 82 1013.4
20260503221551 85 0 0.0 7.0 0.00 0.03 0.03 81 1013.4
20260503221019 85 221 1.0 6.0 0.00 0.03 0.03 82 1013.5
20260503220520 86 86 1.0 6.0 0.00 0.03 0.03 81 1013.4
20260503220040 86 75 1.0 4.0 0.00 0.03 0.03 82 1013.5
20260503215520 85 184 1.0 4.0 0.00 0.03 0.03 81 1013.5
20260503215019 85 88 1.0 4.0 0.02 0.03 0.03 82 1013.5
20260503214540 85 0 1.0 5.0 0.03 0.03 0.03 81 1013.6
20260503214024 86 0 1.0 5.0 0.03 0.03 0.03 82 1013.6
20260503213519 85 109 1.0 4.0 0.03 0.03 0.03 83 1013.4
20260503213045 85 92 1.0 4.0 0.03 0.03 0.03 84 1013.4
20260503212523 84 76 1.0 6.0 0.03 0.03 0.03 85 1013.5
20260503212019 85 186 0.0 7.0 0.03 0.03 0.03 84 1013.6
20260503211541 85 202 1.0 7.0 0.03 0.03 0.03 85 1013.6
20260503211020 85 213 1.0 7.0 0.03 0.03 0.03 86 1013.6
20260503210521 85 226 1.0 3.0 0.03 0.03 0.03 88 1013.6
20260503210040 85 0 0.0 8.0 0.03 0.03 0.03 86 1013.6
20260503205521 86 159 0.0 8.0 0.03 0.03 0.03 81 1013.6
20260503205020 89 55 2.0 9.0 0.00 0.00 0.00 77 1013.7
20260503204546 88 200 4.0 9.0 0.00 0.00 0.00 75 1013.6
20260503204023 89 222 1.0 9.0 0.00 0.00 0.00 76 1013.6
20260503203524 89 130 2.0 9.0 0.00 0.00 0.00 76 1013.6
20260503203045 89 119 2.0 8.0 0.00 0.00 0.00 75 1013.6
20260503202523 89 188 2.0 7.0 0.00 0.00 0.00 76 1013.6
20260503202024 88 0 1.0 7.0 0.00 0.00 0.00 76 1013.7
20260503201541 89 203 2.0 9.0 0.00 0.00 0.00 75 1013.8
20260503201023 89 198 3.0 11.0 0.00 0.00 0.00 77 1013.8
20260503200523 89 0 1.0 12.0 0.00 0.00 0.00 76 1013.8
20260503200040 89 0 2.0 12.0 0.00 0.00 0.00 75 1013.8
20260503195522 90 323 2.0 6.0 0.00 0.00 0.00 74 1013.9
20260503195020 90 180 2.0 7.0 0.00 0.00 0.00 73 1013.9
20260503194543 89 180 2.0 7.0 0.00 0.00 0.00 74 1013.9
20260503194021 90 0 2.0 8.0 0.00 0.00 0.00 74 1014.0
20260503193520 88 144 1.0 8.0 0.00 0.00 0.00 75 1014.0
20260503193045 89 98 2.0 8.0 0.00 0.00 0.00 75 1014.0
20260503192520 89 101 3.0 11.0 0.00 0.00 0.00 75 1014.1
20260503192021 89 187 4.0 11.0 0.00 0.00 0.00 74 1014.0
20260503191604 89 171 2.0 7.0 0.00 0.00 0.00 75 1014.0
20260503191024 89 211 1.0 7.0 0.00 0.00 0.00 75 1014.1
20260503190523 89 40 1.0 7.0 0.00 0.00 0.00 74 1014.1
20260503190041 90 0 2.0 8.0 0.00 0.00 0.00 73 1014.1
20260503185525 90 235 3.0 8.0 0.00 0.00 0.00 74 1014.1
20260503185020 90 212 2.0 9.0 0.00 0.00 0.00 74 1014.2
20260503184541 90 133 2.0 9.0 0.00 0.00 0.00 74 1014.2
20260503184020 89 207 3.0 6.0 0.00 0.00 0.00 75 1014.2
20260503183525 89 190 1.0 9.0 0.00 0.00 0.00 74 1014.4
20260503183045 90 107 2.0 9.0 0.00 0.00 0.00 73 1014.4
20260503182520 89 207 3.0 9.0 0.00 0.00 0.00 74 1014.5
20260503182021 89 302 2.0 6.0 0.00 0.00 0.00 75 1014.5
20260503181549 89 65 1.0 4.0 0.00 0.00 0.00 75 1014.7
20260503181022 89 61 1.0 9.0 0.00 0.00 0.00 75 1014.6
20260503180522 90 0 2.0 9.0 0.00 0.00 0.00 74 1014.7
20260503180043 89 244 3.0 9.0 0.00 0.00 0.00 75 1014.7